Location: Newark
(41.7300°N, 13.7500°E)
Time: 14:59:17
(UTC+00:00)

Envisat - Visible Passes

Search period start: 18 September 2020 00:00
Search period end: 28 September 2020 00:00
Orbit: 764 x 766 km, 98.1° (Epoch: 18 September)

Date Brightness Start Highest point End Pass type
(mag) Time Alt. Az. Time Alt. Az. Time Alt. Az.
19 Sep 6.1 03:56:12 10° NE 03:59:08 15° E 04:02:06 10° SE visible
20 Sep 6.5 17:54:14 10° WSW 17:56:02 12° W 17:57:51 10° WNW visible
21 Sep 5.6 04:20:33 10° NE 04:24:50 27° E 04:29:05 10° SSE visible
22 Sep 6.4 03:45:48 10° ENE 03:47:39 12° E 03:49:30 10° ESE visible
23 Sep 6.2 17:41:38 10° SW 17:44:32 15° W 17:47:29 10° NW visible
24 Sep 5.9 04:09:32 10° NE 04:13:23 21° E 04:17:12 10° SE visible
26 Sep 6.0 17:29:27 10° SW 17:33:04 19° W 17:36:41 10° NW visible
27 Sep 6.1 03:58:40 10° NE 04:01:54 17° E 04:05:08 10° SE visible
